Time,TemperatureF,DewpointF,PressureIn,WindDirection,WindDirectionDegrees,WindSpeedMPH,WindSpeedGustMPH,Humidity,HourlyPrecipIn,Conditions,Clouds,dailyrainin,SoftwareType,DateUTC
2013-01-02 00:02:00,0.0,-5.0,-100.00,North,0,0.0,1.0,80,-99.99,,,-99.99,,2013-01-02 07:02:00,
2013-01-02 00:12:00,-2.0,-7.0,-100.00,South,178,0.0,3.0,79,-99.99,,,-99.99,,2013-01-02 07:12:00,
2013-01-02 00:22:00,-2.0,-7.0,-100.00,South,178,0.0,3.0,79,-99.99,,,-99.99,,2013-01-02 07:22:00,
2013-01-02 00:32:00,-3.0,-8.0,-100.00,North,0,0.0,1.0,78,-99.99,,,-99.99,,2013-01-02 07:32:00,
2013-01-02 00:42:00,-3.0,-7.0,-100.00,North,0,0.0,0.0,79,-99.99,,,-99.99,,2013-01-02 07:42:00,
2013-01-02 00:52:00,-3.0,-7.0,-100.00,North,0,0.0,1.0,80,-99.99,,,-99.99,,2013-01-02 07:52:00,
2013-01-02 01:02:00,-2.0,-7.0,-100.00,North,1,1.0,2.0,79,-99.99,,,-99.99,,2013-01-02 08:02:00,
2013-01-02 01:11:00,-2.0,-7.0,-100.00,East,96,0.0,1.0,80,-99.99,,,-99.99,,2013-01-02 08:11:00,
2013-01-02 01:21:00,-2.0,-6.0,-100.00,North,0,0.0,2.0,81,-99.99,,,-99.99,,2013-01-02 08:21:00,
2013-01-02 01:32:00,-2.0,-6.0,-100.00,ENE,66,2.0,2.0,81,-99.99,,,-99.99,,2013-01-02 08:32:00,
2013-01-02 01:42:00,-1.0,-5.0,-100.00,ENE,78,4.0,5.0,81,-99.99,,,-99.99,,2013-01-02 08:42:00,
2013-01-02 01:52:00,-2.0,-6.0,-100.00,NE,46,1.0,4.0,81,-99.99,,,-99.99,,2013-01-02 08:52:00,
2013-01-02 02:02:00,-3.0,-8.0,-100.00,SW,234,2.0,2.0,79,-99.99,,,-99.99,,2013-01-02 09:02:00,
2013-01-02 02:12:00,-2.0,-7.0,-100.00,WNW,283,0.0,2.0,80,-99.99,,,-99.99,,2013-01-02 09:12:00,
2013-01-02 02:22:00,-2.0,-6.0,-100.00,North,0,0.0,0.0,80,-99.99,,,-99.99,,2013-01-02 09:22:00,
2013-01-02 02:32:00,-1.0,-5.0,-100.00,North,353,1.0,2.0,80,-99.99,,,-99.99,,2013-01-02 09:32:00,
2013-01-02 02:42:00,-1.0,-6.0,-100.00,North,0,0.0,2.0,80,-99.99,,,-99.99,,2013-01-02 09:42:00,
2013-01-02 02:52:00,-1.0,-6.0,-100.00,NW,322,2.0,2.0,79,-99.99,,,-99.99,,2013-01-02 09:52:00,
2013-01-02 03:02:00,-3.0,-7.0,-100.00,NNW,331,3.0,4.0,79,-99.99,,,-99.99,,2013-01-02 10:02:00,
2013-01-02 03:12:00,-2.0,-7.0,-100.00,NNW,327,2.0,4.0,80,-99.99,,,-99.99,,2013-01-02 10:12:00,
2013-01-02 03:22:00,-2.0,-6.0,-100.00,East,87,1.0,2.0,80,-99.99,,,-99.99,,2013-01-02 10:22:00,
2013-01-02 03:32:00,-2.0,-7.0,-100.00,ESE,118,4.0,4.0,79,-99.99,,,-99.99,,2013-01-02 10:32:00,
2013-01-02 03:42:00,-3.0,-7.0,-100.00,East,83,2.0,4.0,79,-99.99,,,-99.99,,2013-01-02 10:42:00,
2013-01-02 03:52:00,-3.0,-8.0,-100.00,East,97,1.0,3.0,79,-99.99,,,-99.99,,2013-01-02 10:52:00,
2013-01-02 04:02:00,-3.0,-8.0,-100.00,ESE,103,1.0,2.0,79,-99.99,,,-99.99,,2013-01-02 11:02:00,
2013-01-02 04:11:00,-3.0,-8.0,-100.00,North,0,0.0,2.0,79,-99.99,,,-99.99,,2013-01-02 11:11:00,
2013-01-02 04:22:00,-3.0,-8.0,-100.00,North,0,0.0,2.0,79,-99.99,,,-99.99,,2013-01-02 11:22:00,
2013-01-02 04:32:00,-4.0,-8.0,-100.00,ENE,68,1.0,2.0,78,-99.99,,,-99.99,,2013-01-02 11:32:00,
2013-01-02 04:42:00,-4.0,-9.0,-100.00,East,79,1.0,2.0,78,-99.99,,,-99.99,,2013-01-02 11:42:00,
2013-01-02 04:52:00,-4.0,-9.0,-100.00,ESE,119,2.0,2.0,78,-99.99,,,-99.99,,2013-01-02 11:52:00,
2013-01-02 05:02:00,-5.0,-9.0,-100.00,ESE,110,0.0,2.0,78,-99.99,,,-99.99,,2013-01-02 12:02:00,
2013-01-02 05:12:00,-4.0,-8.0,-100.00,East,85,1.0,2.0,79,-99.99,,,-99.99,,2013-01-02 12:12:00,
2013-01-02 05:22:00,-4.0,-9.0,-100.00,SE,138,0.0,2.0,78,-99.99,,,-99.99,,2013-01-02 12:22:00,
2013-01-02 05:32:00,-4.0,-8.0,-100.00,SSE,152,1.0,2.0,79,-99.99,,,-99.99,,2013-01-02 12:32:00,
2013-01-02 05:42:00,-4.0,-8.0,-100.00,SE,137,1.0,2.0,79,-99.99,,,-99.99,,2013-01-02 12:42:00,
2013-01-02 05:52:00,-4.0,-9.0,-100.00,NNE,16,1.0,2.0,78,-99.99,,,-99.99,,2013-01-02 12:52:00,
2013-01-02 06:02:00,-4.0,-9.0,-100.00,NW,304,1.0,2.0,78,-99.99,,,-99.99,,2013-01-02 13:02:00,
2013-01-02 06:12:00,-3.0,-8.0,-100.00,WNW,299,0.0,2.0,79,-99.99,,,-99.99,,2013-01-02 13:12:00,
2013-01-02 06:22:00,-3.0,-8.0,-100.00,NE,48,1.0,1.0,79,-99.99,,,-99.99,,2013-01-02 13:22:00,
2013-01-02 06:32:00,-3.0,-8.0,-100.00,ESE,103,0.0,2.0,79,-99.99,,,-99.99,,2013-01-02 13:32:00,
2013-01-02 06:42:00,-4.0,-9.0,-100.00,ENE,73,2.0,2.0,78,-99.99,,,-99.99,,2013-01-02 13:42:00,
2013-01-02 06:52:00,-4.0,-9.0,-100.00,East,97,3.0,4.0,78,-99.99,,,-99.99,,2013-01-02 13:52:00,
2013-01-02 07:02:00,-4.0,-9.0,-100.00,SE,126,2.0,4.0,79,-99.99,,,-99.99,,2013-01-02 14:02:00,
2013-01-02 07:12:00,-3.0,-8.0,-100.00,SW,214,1.0,2.0,79,-99.99,,,-99.99,,2013-01-02 14:12:00,
2013-01-02 07:22:00,-3.0,-8.0,-100.00,SW,214,1.0,2.0,79,-99.99,,,-99.99,,2013-01-02 14:22:00,
2013-01-02 07:32:00,-4.0,-9.0,-100.00,North,6,2.0,2.0,79,-99.99,,,-99.99,,2013-01-02 14:32:00,
2013-01-02 07:42:00,-4.0,-9.0,-100.00,North,6,2.0,2.0,79,-99.99,,,-99.99,,2013-01-02 14:42:00,
2013-01-02 07:53:00,-4.0,-8.0,-100.00,ENE,74,2.0,3.0,78,-99.99,,,-99.99,,2013-01-02 14:53:00,
2013-01-02 08:02:00,-4.0,-9.0,-100.00,SE,137,0.0,2.0,78,-99.99,,,-99.99,,2013-01-02 15:02:00,
2013-01-02 08:11:00,-4.0,-9.0,-100.00,SSW,194,2.0,2.0,79,-99.99,,,-99.99,,2013-01-02 15:11:00,
2013-01-02 08:22:00,-3.0,-8.0,-100.00,WSW,251,2.0,2.0,78,-99.99,,,-99.99,,2013-01-02 15:22:00,
2013-01-02 08:33:00,-4.0,-9.0,-100.00,North,0,0.0,2.0,78,-99.99,,,-99.99,,2013-01-02 15:33:00,
2013-01-02 08:42:00,-4.0,-9.0,-100.00,North,0,0.0,2.0,78,-99.99,,,-99.99,,2013-01-02 15:42:00,
2013-01-02 08:52:00,-3.0,-8.0,-100.00,ENE,78,2.0,3.0,79,-99.99,,,-99.99,,2013-01-02 15:52:00,
2013-01-02 09:02:00,-3.0,-8.0,-100.00,ENE,66,2.0,3.0,79,-99.99,,,-99.99,,2013-01-02 16:02:00,
2013-01-02 09:11:00,-3.0,-7.0,-100.00,East,83,0.0,2.0,80,-99.99,,,-99.99,,2013-01-02 16:11:00,
2013-01-02 09:22:00,-4.0,-10.0,-100.00,NNW,333,3.0,3.0,77,-99.99,,,-99.99,,2013-01-02 16:22:00,
2013-01-02 09:53:00,-2.0,-7.0,-100.00,North,353,1.0,2.0,79,-99.99,,,-99.99,,2013-01-02 16:53:00,
2013-01-02 10:02:00,-2.0,-7.0,-100.00,NNW,341,2.0,2.0,78,-99.99,,,-99.99,,2013-01-02 17:02:00,
2013-01-02 10:33:00,2.0,-2.0,-100.00,North,0,0.0,0.0,80,-99.99,,,-99.99,,2013-01-02 17:33:00,
2013-01-02 10:42:00,2.0,-2.0,-100.00,North,0,0.0,0.0,80,-99.99,,,-99.99,,2013-01-02 17:42:00,
2013-01-02 10:53:00,5.0,1.0,-100.00,North,0,0.0,0.0,83,-99.99,,,-99.99,,2013-01-02 17:53:00,
2013-01-02 11:02:00,3.0,-2.0,-100.00,North,0,0.0,0.0,80,-99.99,,,-99.99,,2013-01-02 18:02:00,
2013-01-02 11:12:00,4.0,0.0,-100.00,North,0,0.0,0.0,81,-99.99,,,-99.99,,2013-01-02 18:12:00,
2013-01-02 11:22:00,5.0,1.0,-100.00,North,0,0.0,0.0,82,-99.99,,,-99.99,,2013-01-02 18:22:00,
2013-01-02 11:33:00,5.0,1.0,-100.00,North,0,0.0,0.0,82,-99.99,,,-99.99,,2013-01-02 18:33:00,
2013-01-02 11:42:00,7.0,3.0,-100.00,North,0,0.0,0.0,83,-99.99,,,-99.99,,2013-01-02 18:42:00,
2013-01-02 11:52:00,9.0,5.0,-100.00,North,0,0.0,0.0,84,-99.99,,,-99.99,,2013-01-02 18:52:00,
2013-01-02 12:02:00,10.0,6.0,-100.00,North,0,0.0,0.0,84,-99.99,,,-99.99,,2013-01-02 19:02:00,
2013-01-02 12:12:00,10.0,6.0,-100.00,WNW,299,2.0,2.0,83,-99.99,,,-99.99,,2013-01-02 19:12:00,
2013-01-02 12:22:00,11.0,7.0,-100.00,West,263,1.0,3.0,85,-99.99,,,-99.99,,2013-01-02 19:22:00,
2013-01-02 12:32:00,12.0,8.0,-100.00,North,0,0.0,0.0,84,-99.99,,,-99.99,,2013-01-02 19:32:00,
2013-01-02 12:42:00,13.0,9.0,-100.00,North,0,0.0,0.0,85,-99.99,,,-99.99,,2013-01-02 19:42:00,
2013-01-02 12:52:00,13.0,9.0,-100.00,North,0,0.0,0.0,84,-99.99,,,-99.99,,2013-01-02 19:52:00,
2013-01-02 13:02:00,13.0,9.0,-100.00,North,0,0.0,0.0,83,-99.99,,,-99.99,,2013-01-02 20:02:00,
2013-01-02 13:12:00,14.0,11.0,-100.00,North,0,0.0,0.0,86,-99.99,,,-99.99,,2013-01-02 20:12:00,
2013-01-02 13:22:00,16.0,13.0,-100.00,North,0,0.0,2.0,86,-99.99,,,-99.99,,2013-01-02 20:22:00,
2013-01-02 13:32:00,17.0,13.0,-100.00,North,0,0.0,0.0,85,-99.99,,,-99.99,,2013-01-02 20:32:00,
2013-01-02 13:42:00,17.0,14.0,-100.00,North,0,0.0,0.0,85,-99.99,,,-99.99,,2013-01-02 20:42:00,
2013-01-02 13:50:00,16.0,11.0,-100.00,WSW,249,5.0,5.0,80,-99.99,,,-99.99,,2013-01-02 20:50:00,
2013-01-02 13:53:00,16.0,12.0,-100.00,West,268,3.0,3.0,82,-99.99,,,-99.99,,2013-01-02 20:53:00,
2013-01-02 14:02:00,16.0,12.0,-100.00,WSW,258,3.0,4.0,82,-99.99,,,-99.99,,2013-01-02 21:02:00,
2013-01-02 14:12:00,16.0,11.0,-100.00,WSW,249,5.0,5.0,80,-99.99,,,-99.99,,2013-01-02 21:12:00,
2013-01-02 14:22:00,16.0,11.0,-100.00,WSW,249,5.0,5.0,80,-99.99,,,-99.99,,2013-01-02 21:22:00,
2013-01-02 14:32:00,16.0,11.0,-100.00,WSW,249,5.0,5.0,80,-99.99,,,-99.99,,2013-01-02 21:32:00,
2013-01-02 14:42:00,16.0,11.0,-100.00,WSW,249,5.0,5.0,80,-99.99,,,-99.99,,2013-01-02 21:42:00,
2013-01-02 15:22:00,22.0,15.0,-100.00,WSW,246,1.0,3.0,74,-99.99,,,-99.99,,2013-01-02 22:22:00,
2013-01-02 15:32:00,22.0,15.0,-100.00,WSW,246,1.0,3.0,74,-99.99,,,-99.99,,2013-01-02 22:32:00,
2013-01-02 15:42:00,23.0,15.0,-100.00,NNE,33,2.0,3.0,71,-99.99,,,-99.99,,2013-01-02 22:42:00,
2013-01-02 15:52:00,24.0,14.0,-100.00,NNE,32,1.0,5.0,67,-99.99,,,-99.99,,2013-01-02 22:52:00,
2013-01-02 16:02:00,22.0,11.0,-100.00,NNE,22,2.0,3.0,62,-99.99,,,-99.99,,2013-01-02 23:02:00,
2013-01-02 16:12:00,21.0,11.0,-100.00,NE,43,4.0,6.0,64,-99.99,,,-99.99,,2013-01-02 23:12:00,
2013-01-02 16:22:00,20.0,10.0,-100.00,NNE,30,3.0,5.0,63,-99.99,,,-99.99,,2013-01-02 23:22:00,
2013-01-02 16:32:00,21.0,10.0,-100.00,ENE,64,2.0,2.0,60,-99.99,,,-99.99,,2013-01-02 23:32:00,
2013-01-02 16:42:00,22.0,10.0,-100.00,NE,55,1.0,3.0,58,-99.99,,,-99.99,,2013-01-02 23:42:00,
2013-01-02 16:52:00,22.0,8.0,-100.00,SSW,206,1.0,4.0,54,-99.99,,,-99.99,,2013-01-02 23:52:00,
2013-01-02 17:02:00,18.0,6.0,-100.00,SW,230,1.0,2.0,58,-99.99,,,-99.99,,2013-01-03 00:02:00,
2013-01-02 17:11:00,17.0,6.0,-100.00,SSE,147,3.0,4.0,62,-99.99,,,-99.99,,2013-01-03 00:11:00,
2013-01-02 17:22:00,15.0,6.0,-100.00,NW,318,2.0,5.0,64,-99.99,,,-99.99,,2013-01-03 00:22:00,
2013-01-02 17:36:00,15.0,6.0,-100.00,NNE,16,1.0,3.0,65,-99.99,,,-99.99,,2013-01-03 00:36:00,
2013-01-02 17:42:00,13.0,4.0,-100.00,ESE,102,5.0,6.0,66,-99.99,,,-99.99,,2013-01-03 00:42:00,
2013-01-02 17:52:00,12.0,5.0,-100.00,ESE,104,3.0,7.0,71,-99.99,,,-99.99,,2013-01-03 00:52:00,
2013-01-02 18:02:00,12.0,4.0,-100.00,SE,134,2.0,5.0,68,-99.99,,,-99.99,,2013-01-03 01:02:00,
2013-01-02 18:11:00,12.0,4.0,-100.00,SE,133,0.0,2.0,69,-99.99,,,-99.99,,2013-01-03 01:11:00,
2013-01-02 18:22:00,11.0,3.0,-100.00,SE,127,4.0,4.0,70,-99.99,,,-99.99,,2013-01-03 01:22:00,
2013-01-02 18:32:00,10.0,3.0,-100.00,ENE,74,1.0,4.0,70,-99.99,,,-99.99,,2013-01-03 01:32:00,
2013-01-02 18:42:00,10.0,2.0,-100.00,SE,141,2.0,2.0,71,-99.99,,,-99.99,,2013-01-03 01:42:00,
2013-01-02 18:52:00,9.0,2.0,-100.00,East,100,3.0,5.0,72,-99.99,,,-99.99,,2013-01-03 01:52:00,
2013-01-02 19:02:00,8.0,1.0,-100.00,East,79,2.0,3.0,73,-99.99,,,-99.99,,2013-01-03 02:02:00,
2013-01-02 19:12:00,5.0,-2.0,-100.00,ENE,62,3.0,5.0,72,-99.99,,,-99.99,,2013-01-03 02:12:00,
2013-01-02 19:22:00,8.0,1.0,-100.00,East,89,0.0,4.0,74,-99.99,,,-99.99,,2013-01-03 02:22:00,
2013-01-02 19:32:00,7.0,1.0,-100.00,South,173,0.0,2.0,74,-99.99,,,-99.99,,2013-01-03 02:32:00,
2013-01-02 19:42:00,7.0,1.0,-100.00,South,173,0.0,2.0,74,-99.99,,,-99.99,,2013-01-03 02:42:00,
2013-01-02 19:52:00,7.0,1.0,-100.00,South,173,0.0,2.0,74,-99.99,,,-99.99,,2013-01-03 02:52:00,
2013-01-02 20:02:00,3.0,-3.0,-100.00,North,0,0.0,1.0,75,-99.99,,,-99.99,,2013-01-03 03:02:00,
2013-01-02 20:12:00,4.0,-2.0,-100.00,ENE,61,0.0,2.0,76,-99.99,,,-99.99,,2013-01-03 03:12:00,
2013-01-02 20:22:00,1.0,-5.0,-100.00,East,87,0.0,3.0,74,-99.99,,,-99.99,,2013-01-03 03:22:00,
2013-01-02 20:46:00,2.0,-4.0,-100.00,WNW,302,1.0,2.0,74,-99.99,,,-99.99,,2013-01-03 03:46:00,
2013-01-02 20:52:00,1.0,-5.0,-100.00,NE,39,0.0,3.0,74,-99.99,,,-99.99,,2013-01-03 03:52:00,
2013-01-02 21:02:00,2.0,-4.0,-100.00,North,0,0.0,0.0,77,-99.99,,,-99.99,,2013-01-03 04:02:00,
2013-01-02 21:11:00,2.0,-4.0,-100.00,ESE,112,1.0,2.0,74,-99.99,,,-99.99,,2013-01-03 04:11:00,
2013-01-02 21:22:00,1.0,-4.0,-100.00,SSE,160,0.0,2.0,77,-99.99,,,-99.99,,2013-01-03 04:22:00,
2013-01-02 21:32:00,1.0,-5.0,-100.00,North,0,0.0,1.0,76,-99.99,,,-99.99,,2013-01-03 04:32:00,
2013-01-02 21:42:00,-2.0,-8.0,-100.00,North,6,0.0,2.0,75,-99.99,,,-99.99,,2013-01-03 04:42:00,
2013-01-02 21:52:00,-2.0,-7.0,-100.00,ENE,71,4.0,4.0,79,-99.99,,,-99.99,,2013-01-03 04:52:00,
2013-01-02 22:03:00,-2.0,-7.0,-100.00,ESE,103,6.0,7.0,78,-99.99,,,-99.99,,2013-01-03 05:03:00,
2013-01-02 22:12:00,-2.0,-8.0,-100.00,SW,231,0.0,5.0,75,-99.99,,,-99.99,,2013-01-03 05:12:00,
2013-01-02 22:22:00,-2.0,-8.0,-100.00,SW,231,0.0,5.0,75,-99.99,,,-99.99,,2013-01-03 05:22:00,
2013-01-02 22:33:00,-3.0,-8.0,-100.00,East,86,4.0,5.0,80,-99.99,,,-99.99,,2013-01-03 05:33:00,
2013-01-02 22:52:00,1.0,-3.0,-100.00,SE,128,4.0,5.0,82,-99.99,,,-99.99,,2013-01-03 05:52:00,
2013-01-02 23:02:00,-4.0,-10.0,-100.00,West,278,1.0,4.0,74,-99.99,,,-99.99,,2013-01-03 06:02:00,
2013-01-02 23:12:00,-5.0,-10.0,-100.00,NW,320,0.0,2.0,79,-99.99,,,-99.99,,2013-01-03 06:12:00,
2013-01-02 23:22:00,-4.0,-9.0,-100.00,ENE,68,3.0,3.0,78,-99.99,,,-99.99,,2013-01-03 06:22:00,
2013-01-02 23:32:00,-3.0,-8.0,-100.00,North,0,0.0,3.0,79,-99.99,,,-99.99,,2013-01-03 06:32:00,
2013-01-02 23:42:00,-6.0,-11.0,-100.00,North,7,1.0,2.0,77,-99.99,,,-99.99,,2013-01-03 06:42:00,
2013-01-02 23:52:00,-5.0,-10.0,-100.00,ENE,57,2.0,2.0,78,-99.99,,,-99.99,,2013-01-03 06:52:00,